Back to catalog

DELTA 1 DEB

AliveSSO
NORAD 42567·DEBRIS·🇺🇸 United States

Launched Jul 23, 1972 from Vandenberg Space Force Base

Loading…

Next Passes (next 24 hours)

TLE

FreshSource: Space-Track

Epoch: Sep 13, 2026, 04:26 UTC

1 42567U 72058KA  26256.18472479  .00000684  00000-0  11906-3 0  9997
2 42567  98.5343  37.0718 0112403  82.9935 278.4036 14.67595569683601

Track DELTA 1 DEB in real time with AllMySat

Download on the App Store